Wind_Speed
21 20 20 19 19 19 20 20 20 20 19 18 18 17 16 16 15 16 16 15 14 13 12 12 11 12 12 12 12 12 12 12 12 12 12 12 12 13 12 12 13 13 13 12 12 13 13 12 13 13 14 14 14 13 13 14 14 14 13 12 12 12 11 10 9 9 11 11 9 9 10 9 10 11 11 12 12 13 13 14 14 14 14 14 14
21 21 20 20 20 20 20 20 21 21 20 19 18 18 17 16 16 16 15 14 13 13 12 12 12 12 12 12 12 12 12 12 12 12 12 12 13 13 13 13 14 14 13 13 13 13 13 13 12 13 13 14 14 14 13 13 13 13 13 12 12 12 11 10 9 9 10 11 10 10 10 10 11 12 13 13 13 13 13 14 15 15 14 14 14
22 21 21 20 20 20 21 21 22 22 22 20 19 18 18 18 17 16 14 13 14 13 13 13 13 13 12 12 12 12 11 12 12 11 12 12 13 13 13 13 14 14 13 14 14 13 13 13 13 13 13 13 13 13 12 12 12 12 12 12 12 11 10 9 9 8 9 10 10 10 11 12 13 14 14 14 14 14 15 15 15 15 15 14 14
23 22 22 21 21 21 22 22 23 23 23 21 20 19 19 19 18 16 15 15 14 14 14 14 14 13 13 12 12 11 11 11 11 11 12 12 12 13 13 13 14 14 14 13 13 13 13 13 13 13 13 12 12 12 12 11 11 11 11 11 11 10 10 9 9 9 9 9 10 11 12 12 13 15 15 14 15 16 16 16 16 15 14 14 13
24 24 23 22 22 23 23 23 24 24 23 22 21 21 20 20 19 18 17 16 16 15 16 15 15 14 13 13 13 12 12 12 12 12 13 13 13 13 13 13 14 14 14 13 13 13 13 13 14 14 13 12 12 11 11 11 11 11 11 11 11 11 11 10 10 10 9 9 10 12 13 13 13 14 15 14 14 15 15 15 15 15 12 12 12
26 24 24 24 23 23 23 24 24 24 23 23 23 22 21 21 20 19 18 18 17 17 17 16 15 15 14 14 14 14 14 13 13 13 13 13 13 13 13 14 15 15 15 14 14 13 13 14 14 14 13 12 12 11 11 11 10 10 10 10 11 11 11 11 10 10 10 11 11 12 13 13 12 14 15 15 15 15 13 12 13 14 12 11 12
28 26 25 25 24 24 24 24 24 24 24 23 23 24 23 22 21 20 19 19 18 18 18 17 16 15 16 16 16 15 15 15 15 15 14 14 14 14 14 15 15 16 16 16 15 15 15 15 15 14 13 13 12 12 12 11 11 10 11 11 11 11 11 11 11 12 12 13 13 13 12 12 13 14 15 16 16 16 15 12 11 12 12 12 13
29 28 27 27 26 25 25 25 25 25 24 24 24 24 25 24 23 22 21 20 20 19 19 18 17 17 17 17 17 17 17 17 16 16 15 15 15 15 15 15 16 16 17 17 17 17 17 16 16 15 14 14 13 13 13 13 13 13 13 13 12 11 11 12 13 14 14 14 14 13 12 12 13 15 16 17 17 17 18 16 13 11 12 13 14
28 29 29 29 28 27 27 27 26 26 25 25 25 25 25 26 25 24 23 23 22 21 20 19 19 19 19 19 19 18 17 17 17 17 17 16 16 16 16 16 17 17 17 18 18 18 18 18 17 16 16 15 15 14 14 14 14 14 14 14 13 12 12 13 15 16 16 16 15 14 13 13 15 16 16 17 17 17 18 18 17 14 12 13 15
28 29 29 29 29 28 28 28 27 26 26 25 25 25 25 26 26 26 25 24 24 23 22 22 22 21 20 20 20 19 18 18 18 18 18 18 18 19 18 18 18 18 18 19 19 20 20 19 18 18 18 18 17 16 17 16 15 15 15 15 15 14 15 15 16 17 17 16 16 16 16 16 16 17 18 18 18 18 18 18 17 16 14 13 14
28 28 27 28 29 28 28 28 28 28 28 27 27 26 26 26 26 25 25 24 23 23 23 23 23 22 22 21 21 20 18 18 18 18 19 20 20 21 20 20 20 19 19 20 20 21 21 21 20 21 21 19 18 18 18 17 17 17 17 17 17 17 17 17 16 16 17 17 17 18 18 17 17 18 19 19 19 18 18 18 18 17 16 15 14
26 27 25 26 27 27 27 28 29 29 30 29 28 27 27 27 26 25 24 23 22 23 23 23 22 22 22 22 21 20 19 19 19 19 20 20 21 21 21 21 21 21 21 21 21 21 22 22 23 23 22 20 19 18 18 18 18 18 18 18 19 19 19 18 17 17 18 19 19 19 19 19 19 19 21 20 20 19 19 19 20 19 18 17 17
28 28 25 24 26 27 27 27 28 29 30 30 29 27 26 26 26 26 25 24 23 23 22 22 22 22 22 21 21 20 19 19 20 20 21 21 21 21 21 21 21 22 23 22 22 22 22 23 23 23 22 21 20 19 19 19 19 19 19 19 19 19 19 19 19 19 20 21 20 21 21 21 20 20 21 22 21 21 20 20 21 21 20 20 20
30 28 25 24 25 23 23 23 25 28 30 29 28 28 26 24 25 25 24 23 22 23 22 21 21 21 21 21 21 21 21 21 21 21 21 22 23 23 23 23 22 22 24 24 24 23 23 23 22 22 22 22 21 21 20 19 19 19 19 19 19 20 20 20 21 22 22 22 22 23 24 24 23 22 22 22 23 22 22 21 21 21 22 22 22
28 26 25 25 23 21 22 22 23 27 28 28 29 28 26 25 25 24 24 23 22 23 23 22 22 22 22 23 23 23 23 23 23 22 22 23 24 25 26 25 24 23 25 25 25 25 24 24 23 22 22 22 22 21 21 20 20 20 21 21 21 21 22 22 23 23 24 24 24 23 24 24 24 23 22 23 23 23 22 22 23 23 23 23 23
26 25 25 23 22 24 26 25 24 26 27 27 28 28 27 25 23 24 26 26 23 22 24 24 24 25 24 24 25 25 25 25 25 25 25 25 25 26 27 27 26 26 26 27 26 26 25 25 24 23 23 23 23 23 22 22 22 22 22 23 23 23 23 23 24 24 24 25 25 25 25 25 24 23 23 24 24 24 23 24 25 26 26 26 25
25 25 24 22 22 23 25 23 22 22 23 24 26 27 28 26 23 25 29 28 24 22 24 26 26 27 27 27 27 27 27 28 28 28 28 28 28 28 28 28 28 28 28 28 29 28 27 26 26 25 25 25 25 25 25 24 24 23 24 24 25 25 26 26 25 26 26 27 27 27 26 26 25 25 25 25 25 25 25 26 27 28 27 27 26
22 22 22 24 25 24 24 23 21 20 23 26 26 26 26 25 24 27 29 28 25 24 25 26 27 28 30 30 30 30 31 32 33 32 32 32 32 31 31 31 31 31 30 31 31 31 30 28 27 26 26 26 27 27 26 25 25 25 26 26 27 28 28 28 27 27 26 26 27 27 26 26 26 26 26 26 26 27 28 28 28 28 28 27 27
18 20 21 23 23 23 23 22 22 24 27 29 28 26 26 26 25 25 26 27 27 27 28 29 28 29 31 32 34 35 36 36 36 36 36 36 36 35 35 35 35 34 34 34 35 34 33 30 29 28 28 28 29 28 28 27 27 27 27 27 27 27 27 28 27 26 25 24 24 25 26 25 25 26 26 27 27 28 28 28 28 27 27 27 27
11 15 18 17 18 18 18 18 20 21 23 25 25 25 26 27 27 27 27 28 30 32 33 33 31 30 31 33 35 37 38 37 37 38 39 39 39 39 40 40 39 39 39 39 39 37 35 33 32 31 31 30 30 30 29 29 28 27 26 24 24 24 25 25 25 25 23 22 21 21 23 24 24 25 26 27 27 28 28 28 28 27 26 26 26
7 12 15 15 15 16 16 16 17 18 18 20 23 24 24 25 27 28 30 31 32 33 34 33 32 31 31 33 35 36 37 37 38 39 41 41 41 42 43 44 44 43 43 43 43 41 39 37 36 34 32 31 30 30 29 28 28 26 25 24 25 24 23 24 25 25 23 20 19 19 21 22 23 24 26 27 27 27 28 28 28 27 27 27 26
13 15 15 15 15 17 17 15 14 16 18 18 19 20 21 22 24 25 27 28 29 28 28 29 29 30 31 32 32 32 33 35 36 37 39 40 42 43 44 45 46 45 46 47 47 45 44 42 39 36 34 31 30 30 29 28 28 27 26 26 26 25 24 24 24 24 23 21 20 21 22 22 23 24 26 26 27 27 27 28 28 28 27 26 24
16 16 16 15 15 16 15 12 10 12 15 17 18 19 20 22 23 24 25 26 26 26 26 27 28 29 30 30 29 30 30 30 31 32 34 36 38 39 40 41 42 42 43 44 44 43 43 41 38 36 35 33 31 31 30 29 30 29 27 27 27 27 25 24 24 24 23 24 25 25 25 25 25 25 26 26 26 26 26 26 26 25 25 23 22
14 15 15 15 14 14 14 12 10 11 12 14 17 19 20 22 24 24 25 25 25 25 26 26 27 28 28 29 28 28 27 27 27 28 30 31 32 34 35 35 36 36 36 36 36 36 37 37 36 36 36 33 31 32 31 29 29 29 27 28 28 27 25 24 25 26 27 28 30 30 29 28 28 27 26 26 25 24 23 23 22 22 21 22 22
12 14 15 15 15 14 14 14 14 14 14 14 15 15 17 19 21 22 24 25 25 25 25 25 25 25 27 29 29 28 26 26 26 27 28 29 29 31 32 33 34 34 32 30 28 27 29 31 33 35 35 33 31 32 31 29 28 28 27 27 28 28 27 28 30 31 32 33 33 32 31 30 29 27 25 24 23 22 22 22 22 22 23 24 26
9 11 13 14 14 14 15 15 15 15 15 15 15 15 15 16 17 18 20 21 20 21 21 22 22 22 23 26 29 29 27 26 25 25 26 27 28 30 32 32 32 30 28 25 23 22 22 24 27 31 33 32 30 31 30 28 28 28 28 29 30 31 32 34 35 36 37 37 35 33 31 29 27 24 23 23 24 24 24 24 25 26 27 27 29
6 7 8 9 11 12 13 14 13 14 14 14 14 14 14 14 14 15 17 17 16 17 18 20 22 23 23 24 26 27 27 26 25 25 25 25 26 26 26 24 22 22 21 18 17 18 19 22 24 26 28 28 27 27 26 25 26 28 29 30 31 31 32 32 32 32 33 32 30 28 26 25 25 24 25 26 26 27 27 27 28 28 29 29 29
5 6 6 7 8 10 11 11 12 12 12 13 13 13 13 14 14 14 15 16 17 18 18 18 19 20 22 23 24 25 26 26 26 24 23 23 22 21 19 16 16 18 18 14 12 13 15 17 20 22 23 24 24 23 23 23 24 25 25 25 25 24 23 22 20 20 20 21 21 21 22 24 26 27 28 28 28 29 29 29 29 29 29 29 29
4 5 6 6 6 8 9 10 11 12 12 12 12 12 14 16 17 18 18 18 18 17 15 14 14 15 17 19 22 23 24 24 24 24 23 21 20 19 18 17 17 18 18 15 13 14 14 15 17 19 21 21 21 21 21 21 21 21 20 20 19 18 17 16 15 15 16 17 19 21 23 26 27 28 29 29 29 29 29 29 29 29 29 29 29
3 4 6 6 6 6 6 8 9 11 12 12 13 13 13 15 16 19 20 21 20 19 16 13 13 14 15 16 16 18 20 22 23 24 23 22 20 19 19 19 19 19 18 16 15 15 16 17 18 19 19 20 20 20 20 19 19 18 18 18 18 17 17 17 17 18 19 20 21 23 25 27 28 29 30 29 28 28 28 27 27 27 27 27 27
5 4 6 7 7 7 7 8 9 10 11 12 13 14 14 14 15 16 18 20 22 22 21 19 18 18 18 17 16 17 19 20 22 23 24 23 21 20 20 20 20 19 19 17 16 16 17 17 18 19 20 20 20 20 19 19 19 18 18 18 19 19 19 20 20 21 22 22 23 24 26 27 28 29 29 28 27 27 26 26 26 26 27 27 27
7 6 6 8 9 9 9 10 10 11 12 12 13 13 14 15 15 15 15 16 19 22 24 24 25 25 24 23 22 22 22 23 23 25 26 26 25 23 22 21 20 19 19 19 18 18 18 18 19 20 20 19 19 19 19 19 19 19 19 20 21 22 22 22 23 23 23 24 24 25 26 27 28 28 28 27 26 26 26 26 26 26 26 27 27
9 8 8 9 10 10 11 11 11 12 13 13 13 13 13 14 15 16 15 14 15 17 20 23 26 26 25 22 21 21 21 23 24 26 27 27 26 26 24 23 21 20 19 19 19 18 18 18 18 18 18 19 19 19 19 20 20 21 22 22 23 24 24 24 25 25 25 25 26 26 27 27 27 27 27 27 27 26 26 26 26 26 26 27 27
11 11 10 11 11 11 10 10 10 10 11 12 13 12 12 13 14 15 15 14 14 14 15 18 21 23 23 22 20 20 20 20 21 22 24 24 24 23 23 22 20 18 18 18 17 17 18 18 17 17 19 20 21 21 22 22 23 23 24 24 25 25 25 25 26 26 26 27 27 27 27 27 27 27 27 27 27 27 27 27 27 27 27 28 28
12 12 12 13 13 12 11 11 10 10 11 11 12 12 12 12 13 13 14 14 15 14 14 16 17 18 20 20 20 20 21 21 20 21 21 21 21 21 21 20 19 18 18 19 19 18 19 19 19 20 21 22 23 23 23 24 24 25 25 25 26 26 26 26 26 27 27 28 28 27 27 27 27 27 27 27 28 28 28 28 29 29 29 29 29
15 15 15 15 15 14 13 13 12 12 12 12 12 13 13 14 14 14 13 13 15 16 16 17 16 17 18 18 18 18 19 20 20 21 21 21 20 20 21 21 20 20 20 20 20 20 20 21 22 23 23 24 24 24 24 25 25 25 25 25 26 26 27 27 27 27 28 27 27 27 27 27 27 27 28 28 28 28 29 29 30 30 30 30 30
18 18 18 18 18 18 18 17 16 15 14 13 13 13 14 15 16 15 14 14 14 16 17 18 17 17 17 18 18 18 18 17 16 16 17 18 19 18 19 20 20 20 19 19 19 20 20 21 22 23 24 24 24 24 24 24 24 24 25 25 26 26 27 27 28 28 28 27 27 27 27 27 28 28 28 29 29 29 30 31 32 32 33 33 33
22 21 20 20 20 20 20 20 19 19 18 16 15 14 14 15 16 16 16 15 15 16 18 19 19 20 20 20 19 20 20 19 17 16 15 14 14 15 15 16 16 16 16 16 17 18 19 20 20 21 22 22 23 23 24 24 24 24 25 25 26 26 26 27 27 28 28 28 28 28 28 28 29 29 29 30 30 31 32 32 33 34 34 35 35
24 24 23 22 20 20 20 20 19 19 19 19 18 16 15 15 16 16 16 16 16 16 16 18 19 19 19 19 19 19 20 20 21 22 21 17 15 14 14 13 13 14 15 15 16 17 17 18 18 19 20 21 21 22 23 23 23 24 24 25 25 26 27 27 28 28 28 28 28 29 29 29 29 30 30 31 31 32 33 33 34 35 35 35 36
26 26 26 24 22 21 20 20 19 19 19 19 20 19 18 17 17 17 17 17 16 16 16 17 18 19 19 19 18 18 19 19 20 23 25 24 22 21 19 16 14 14 15 16 17 18 18 19 19 19 20 21 22 22 23 23 24 24 25 26 27 27 28 29 29 29 29 29 30 30 30 30 31 31 32 32 33 34 34 35 35 36 36 36 36
26 27 27 26 26 24 23 21 21 20 19 19 20 20 20 19 18 18 18 17 17 16 16 16 17 19 20 21 21 21 20 19 18 19 20 22 24 25 25 23 21 20 19 18 19 20 20 21 22 22 22 23 23 24 24 25 25 26 27 28 28 29 29 30 30 30 31 31 31 32 32 32 33 33 34 34 35 35 35 36 36 36 36 36 36
25 26 26 27 28 27 26 24 23 22 21 21 21 22 22 21 20 20 19 19 18 18 18 18 18 19 20 21 22 23 23 23 22 21 20 20 21 23 25 26 28 28 27 25 24 23 23 23 23 24 24 25 25 26 26 27 27 28 28 29 29 30 30 30 31 32 32 33 33 34 34 34 34 34 35 35 35 35 35 35 36 36 36 35 35
26 26 27 28 28 28 27 26 25 24 23 24 24 24 25 24 23 22 22 21 21 21 21 21 21 21 21 22 23 23 23 24 24 25 25 25 26 26 26 26 27 28 29 30 30 29 28 27 27 26 27 27 27 28 28 29 29 30 30 30 30 31 31 32 33 33 34 34 34 34 34 34 34 34 35 35 35 35 35 35 35 36 36 35 35
26 26 27 28 28 27 27 26 26 26 25 26 27 27 27 28 27 26 25 25 25 25 24 23 23 23 23 24 24 25 25 24 24 25 25 26 26 27 28 27 27 27 27 28 29 30 31 31 31 31 30 30 30 31 31 31 31 31 31 31 32 32 33 33 34 34 35 35 35 35 35 35 35 35 35 35 35 35 36 36 36 36 35 35 35
28 27 27 27 28 28 27 26 26 26 27 28 29 30 30 30 29 29 29 29 29 28 27 26 25 24 24 25 25 26 27 27 26 26 26 26 26 27 28 28 29 29 29 29 30 31 31 32 32 32 32 32 32 33 33 33 33 33 33 33 33 33 34 34 35 35 35 36 35 35 36 36 36 36 36 36 36 36 36 35 35 35 34 34 33
29 30 29 29 29 29 28 28 27 27 28 29 30 31 31 31 31 31 32 33 33 32 30 29 28 27 26 26 27 27 27 28 28 28 28 28 28 28 28 29 29 30 30 31 31 33 33 34 34 34 34 34 35 35 35 35 35 35 34 34 35 35 35 35 36 36 36 36 36 36 36 36 36 36 36 36 36 35 34 34 33 33 33 33 33
30 30 30 30 30 30 29 29 29 29 29 30 31 31 31 31 31 33 34 34 34 34 33 31 30 29 28 28 28 28 28 28 28 28 28 29 29 29 29 29 29 30 30 31 32 33 33 34 35 35 36 37 37 37 37 36 35 35 35 36 36 37 37 36 36 36 36 36 36 36 36 36 36 35 35 35 34 33 33 33 32 33 33 34 35
31 31 31 30 30 30 30 30 31 31 31 31 31 32 32 31 31 32 33 34 35 35 35 34 33 31 30 29 29 29 29 29 29 29 29 30 30 30 30 30 29 30 30 31 32 32 32 32 33 33 34 34 35 35 35 35 34 34 35 35 36 36 36 36 36 36 36 36 36 35 35 35 34 34 33 33 32 32 33 33 34 35 36 37 38
33 33 32 31 30 28 28 28 29 30 30 30 30 31 32 32 31 30 30 31 33 34 35 35 35 33 31 30 29 29 30 30 31 31 32 32 32 32 31 31 31 30 31 31 31 31 31 31 31 31 31 31 31 31 31 31 32 32 33 33 33 33 34 34 34 35 35 34 34 34 33 33 32 32 31 32 32 33 34 35 36 37 38 39 39
34 34 34 33 32 30 28 28 29 30 31 32 32 32 32 32 31 29 28 29 31 33 35 35 35 34 32 30 29 29 29 30 31 31 32 32 33 32 32 31 31 31 31 31 31 30 30 30 30 31 31 30 30 30 30 30 30 30 31 31 31 32 32 32 32 32 32 32 32 31 31 31 31 31 32 32 33 34 35 36 37 38 38 39 39
31 32 32 33 33 32 30 29 29 30 31 32 33 34 34 32 30 28 28 29 31 33 34 34 33 31 30 28 28 28 28 29 30 31 31 32 32 32 31 31 30 30 31 31 30 29 29 28 29 29 29 29 29 29 29 29 30 30 30 30 31 31 31 30 30 30 30 29 29 30 30 30 31 32 33 33 34 35 36 36 37 38 38 38 38
Wind_Direction
216 217 218 218 217 216 215 211 207 206 206 206 206 208 212 214 213 213 212 211 213 214 213 214 217 220 220 221 224 227 229 231 230 230 232 234 236 237 234 231 233 235 236 238 240 243 246 248 248 247 248 250 250 250 251 254 259 262 263 263 263 264 264 269 272 272 276 280 283 286 289 292 296 299 301 302 305 307 309 312 314 313 309 306 305
218 218 219 219 218 218 217 215 211 208 207 206 204 205 208 211 212 213 211 211 213 214 215 216 218 220 220 219 222 225 228 231 233 234 235 237 238 239 239 237 236 238 238 239 239 239 241 244 247 248 250 252 254 256 257 259 260 260 260 259 259 260 260 264 267 266 272 278 281 284 287 291 295 298 299 301 302 305 306 307 308 306 304 305 306
220 220 220 220 219 219 219 218 215 212 210 207 205 204 204 206 209 210 209 210 213 215 216 216 217 219 219 221 223 223 226 229 232 235 238 240 239 238 238 239 240 241 242 243 241 239 238 239 240 242 244 249 253 258 260 261 261 258 256 255 255 257 258 261 264 262 266 274 279 284 289 294 297 298 300 302 304 306 307 309 310 311 312 313 312
222 222 221 221 221 220 220 220 219 217 214 210 207 205 206 207 208 208 209 212 214 216 219 218 218 219 220 223 223 223 226 229 231 234 237 239 240 240 239 239 240 241 242 246 247 247 245 243 241 239 238 240 245 250 253 256 259 257 255 255 254 255 256 258 260 259 261 270 280 286 290 293 295 296 299 302 305 307 311 315 317 318 320 319 313
222 222 222 221 221 221 220 220 220 221 219 215 212 210 209 210 211 210 211 214 216 218 221 222 222 223 223 224 223 223 226 229 231 234 237 238 240 242 242 242 243 242 243 246 247 247 248 248 248 245 241 240 241 242 245 248 253 255 257 259 259 257 256 256 258 261 263 269 276 283 288 292 293 294 298 302 304 307 313 320 321 320 320 314 307
223 222 223 223 221 222 222 222 221 222 221 219 217 217 215 214 215 215 214 215 217 219 221 224 226 226 225 225 224 224 225 228 231 234 236 239 241 243 245 245 246 246 246 247 247 245 246 247 250 251 249 247 246 245 245 246 247 251 255 259 260 259 258 259 261 265 269 273 276 279 284 290 293 293 298 305 308 309 312 318 319 316 312 304 299
219 220 222 223 223 222 223 224 223 222 222 221 219 220 220 219 218 218 218 219 220 221 222 225 227 229 230 230 228 227 228 229 231 233 235 238 242 245 246 246 247 249 248 249 248 247 247 248 250 252 252 251 251 251 253 252 250 247 248 249 251 253 256 261 266 269 273 277 280 282 284 289 292 294 300 306 309 310 310 311 312 306 299 294 290
218 218 220 221 221 223 224 225 224 222 221 221 219 220 222 224 224 222 221 222 224 226 228 229 231 232 234 236 235 234 234 235 235 235 235 237 241 245 248 247 247 249 250 250 250 249 249 249 250 252 251 250 250 253 255 256 253 250 250 250 249 249 253 261 268 272 276 280 282 284 287 289 292 298 304 306 307 309 310 311 309 298 286 283 285
225 221 222 220 217 220 223 225 225 224 222 221 220 219 220 223 225 225 224 224 225 227 230 233 235 235 236 239 240 239 238 239 240 241 240 240 241 244 248 250 248 247 248 249 250 250 250 249 249 250 250 249 248 250 253 254 255 256 259 260 258 257 261 268 273 276 279 280 280 282 286 289 292 297 301 303 306 308 307 307 307 299 284 277 283
230 228 229 227 220 219 222 224 225 224 224 224 222 221 221 222 225 226 227 227 226 227 230 233 234 236 237 240 242 242 242 242 243 245 245 245 244 244 244 246 248 247 247 247 249 250 250 250 249 248 248 247 247 248 250 252 254 256 260 261 260 260 264 269 274 277 279 279 280 283 287 290 293 296 298 301 303 305 305 305 305 302 292 282 282
227 229 233 231 226 224 226 226 226 225 223 223 223 222 222 222 224 227 229 230 230 230 231 234 236 238 240 242 244 245 246 247 248 249 249 249 248 247 245 244 246 247 247 248 249 250 250 249 247 246 247 247 249 251 253 255 256 256 257 258 257 258 262 266 270 273 275 277 280 284 287 290 292 295 296 297 299 301 303 303 304 303 300 293 287
221 228 233 232 229 230 232 231 230 229 225 222 221 224 225 223 222 224 227 230 232 233 234 236 239 241 243 245 247 248 247 247 248 249 251 251 250 247 245 245 247 247 247 247 248 249 250 249 247 247 248 249 250 253 255 257 258 258 258 259 259 261 263 265 265 267 271 275 279 282 285 287 290 293 294 294 296 299 300 300 300 301 301 300 295
216 221 226 231 231 230 233 235 235 235 232 225 221 223 227 231 227 223 223 225 226 229 232 234 237 240 242 244 246 246 245 245 247 248 249 250 250 248 247 247 248 248 247 247 248 248 249 249 249 250 249 249 249 251 253 254 255 257 259 261 261 262 263 265 267 271 276 279 282 283 284 286 288 290 293 295 296 297 297 297 296 297 298 298 297
220 218 219 226 229 229 233 235 234 237 239 238 233 226 223 230 233 230 229 228 225 225 226 229 233 238 241 244 244 244 243 243 246 248 248 248 248 247 247 247 248 248 248 247 247 248 248 248 250 251 250 249 248 249 250 250 251 254 257 258 259 259 262 266 270 274 278 280 282 284 285 288 289 289 291 294 296 297 297 297 295 296 297 296 296
226 227 226 226 226 230 235 234 230 232 237 244 246 238 226 225 231 235 238 236 232 232 232 232 234 236 239 242 244 245 247 248 249 250 250 249 248 247 247 246 246 247 246 245 246 246 247 247 247 249 251 251 249 248 248 249 250 253 255 258 260 262 264 267 270 273 277 279 282 285 286 287 287 287 289 292 294 296 298 298 298 298 297 297 298
221 226 231 229 226 230 234 232 229 231 234 241 249 248 241 235 232 236 242 243 239 240 244 245 245 245 244 244 244 244 247 250 251 251 250 250 249 249 249 248 247 247 246 245 246 246 247 246 245 246 249 251 250 249 248 249 251 253 257 261 264 266 267 268 271 274 277 280 282 284 285 286 286 288 290 290 291 293 295 297 298 299 299 299 300
218 221 226 228 227 225 225 225 228 231 235 241 248 251 251 250 245 241 245 248 249 250 253 255 255 254 254 254 251 248 248 249 250 251 251 251 250 249 249 250 251 250 247 245 245 245 245 245 244 244 245 248 250 249 249 249 251 255 258 262 265 267 268 270 273 276 279 281 282 283 286 290 291 290 289 288 289 292 295 297 298 298 298 298 300
218 218 219 221 224 225 224 227 231 234 237 241 244 248 250 252 251 247 246 249 253 258 261 261 260 258 258 259 258 255 253 252 251 250 250 251 251 251 250 250 250 251 249 247 247 247 247 246 245 243 242 245 247 248 248 249 251 255 258 261 264 267 270 272 274 276 278 280 282 283 285 287 288 287 288 289 292 295 298 299 299 299 299 300 301
218 223 226 228 233 237 235 233 236 240 245 245 245 246 249 251 250 247 245 245 251 257 260 261 264 263 260 259 258 258 256 255 254 254 254 253 253 253 253 252 252 251 251 250 249 248 248 248 245 241 239 242 246 248 249 251 253 255 257 260 264 268 271 274 274 275 276 278 281 285 286 286 287 289 290 292 295 297 299 300 300 301 302 302 302
232 242 251 253 252 250 244 238 239 245 253 254 250 246 246 249 249 248 247 248 251 255 258 260 263 262 259 257 257 258 259 259 258 258 258 257 256 255 255 255 254 252 251 251 250 250 250 251 248 242 238 241 246 249 252 254 255 255 257 260 264 267 270 272 273 273 274 278 284 290 293 294 294 294 294 294 296 297 298 299 300 301 302 302 302
240 256 271 276 271 264 257 248 242 243 250 255 252 245 242 245 247 249 251 252 254 256 258 259 259 257 254 254 255 258 261 261 258 257 257 258 259 258 258 258 257 254 252 251 252 252 251 251 250 246 240 241 246 249 251 253 254 253 255 259 263 266 268 269 271 272 271 273 283 294 299 299 296 294 293 293 294 295 296 296 297 298 299 300 301
226 243 259 264 264 266 266 262 253 249 250 252 253 250 247 246 248 250 252 253 255 256 257 256 256 254 252 252 253 256 259 260 258 256 255 256 257 258 259 260 260 258 256 255 254 254 253 251 249 246 243 243 246 247 248 252 255 255 255 260 264 266 265 264 266 266 265 268 279 291 300 303 300 294 289 289 290 292 293 294 295 296 297 298 299
223 235 243 246 248 254 262 268 265 261 262 262 262 262 259 257 257 257 256 256 256 256 255 255 255 254 254 254 254 254 256 257 257 256 255 254 254 256 257 259 261 261 259 258 258 257 256 255 251 246 243 244 246 247 248 252 256 255 257 262 264 261 258 259 260 261 264 270 279 287 296 302 303 297 291 289 289 290 291 291 292 293 295 296 297
221 227 231 233 235 240 248 254 254 256 261 262 260 261 261 262 262 261 260 259 258 257 258 259 259 258 257 257 255 252 251 251 251 252 252 252 253 256 258 260 262 262 262 261 260 257 254 253 251 248 245 245 247 250 252 254 255 255 257 261 260 256 255 259 263 265 269 274 280 287 293 297 299 296 292 290 290 289 289 289 290 292 294 295 296
229 230 231 232 234 237 242 249 253 256 260 261 260 260 260 262 263 260 258 257 257 259 261 261 262 259 256 256 256 253 251 249 248 249 251 253 255 257 258 259 260 262 264 264 264 261 253 249 248 245 242 242 246 250 253 255 254 253 254 256 256 257 260 266 270 272 274 278 282 286 290 293 294 292 289 287 287 286 286 287 289 292 293 295 296
236 239 241 243 246 248 250 254 258 259 260 261 263 264 264 266 267 266 265 263 261 262 263 264 265 262 256 252 252 253 253 252 250 250 252 255 257 258 259 260 261 261 259 257 257 257 252 247 245 239 235 237 244 250 254 255 252 251 254 257 260 263 267 271 274 275 276 278 281 284 287 289 289 286 282 281 282 283 285 287 289 291 293 294 295
249 248 250 254 257 258 260 263 265 264 263 263 265 268 270 274 277 277 276 273 265 259 259 262 267 270 267 259 253 251 253 253 251 252 253 255 259 260 260 261 258 251 246 243 242 243 243 240 237 231 231 237 245 250 253 256 256 257 260 263 265 268 271 274 275 274 273 274 277 280 282 281 280 278 279 282 284 286 289 290 291 292 292 293 293
289 281 272 268 269 270 270 271 269 268 267 265 265 264 261 259 259 259 260 258 253 250 248 249 255 263 268 264 255 249 250 252 251 250 250 252 256 257 253 247 239 235 235 234 228 227 229 230 226 225 231 240 246 250 255 259 260 262 264 266 270 273 275 277 278 276 273 272 273 274 275 275 277 281 284 287 289 291 292 292 292 292 291 291 291
323 314 300 287 281 279 279 279 277 275 272 268 266 262 256 250 247 246 246 246 246 245 241 235 238 244 250 253 251 247 247 250 249 247 246 248 250 250 243 235 231 231 232 232 230 227 228 229 229 232 238 244 248 252 255 257 258 260 262 265 268 269 271 273 275 275 274 273 274 275 276 279 282 285 286 288 289 290 291 291 291 291 291 292 292
315 322 317 309 300 293 290 290 289 286 283 279 273 267 262 256 252 249 248 247 245 241 232 222 222 227 231 241 249 247 245 246 246 244 244 244 245 246 244 239 235 233 231 231 234 237 237 238 239 241 243 246 249 252 253 254 256 257 258 260 261 264 268 271 274 276 277 278 279 280 281 282 283 284 285 286 287 288 289 289 290 290 291 291 291
291 303 308 307 306 305 304 303 302 299 298 295 289 282 274 266 260 255 252 250 248 246 239 232 229 232 236 245 255 256 252 250 249 248 249 248 245 243 242 242 241 240 240 240 243 246 247 248 248 247 247 248 249 250 250 251 252 252 255 259 263 267 272 275 277 280 281 281 281 280 280 280 280 281 283 285 287 287 287 287 287 287 288 288 288
289 290 293 295 297 299 301 303 305 306 306 305 302 297 287 277 269 261 256 253 252 253 253 251 249 248 249 254 260 263 261 258 254 253 253 254 251 247 244 243 244 244 245 249 252 254 254 252 251 251 250 250 250 249 248 250 253 257 262 267 271 274 277 279 281 282 282 280 279 278 277 278 279 281 284 285 286 286 285 285 285 285 286 286 287
289 289 290 290 289 289 291 295 299 303 306 307 307 306 300 289 278 268 262 257 254 254 256 259 260 258 257 256 257 258 258 256 253 251 250 251 250 246 243 240 240 242 244 246 248 250 250 248 247 250 252 254 255 256 257 260 264 267 271 274 276 278 279 280 280 279 278 277 277 277 277 279 281 283 285 286 286 285 285 285 285 285 285 285 286
279 281 283 283 281 280 281 282 285 290 296 300 303 305 303 296 284 275 269 264 260 257 256 257 260 261 261 260 257 253 251 249 246 245 247 248 249 246 242 236 234 235 238 240 240 241 243 244 247 252 256 259 262 264 267 269 270 272 274 275 276 276 277 277 276 276 276 276 277 278 280 282 283 284 285 285 285 285 285 285 285 286 286 286 287
264 264 267 270 271 272 273 274 275 275 278 284 289 291 291 290 287 284 279 271 266 263 262 260 259 259 261 263 263 258 254 250 245 242 243 245 248 249 247 243 239 237 239 241 242 243 246 249 253 256 258 260 263 265 267 268 269 270 271 272 273 273 273 274 274 274 274 275 277 278 279 280 281 282 282 282 283 283 284 284 285 285 285 286 286
261 257 256 257 259 262 265 269 273 273 271 272 273 274 275 276 279 283 284 278 271 268 267 268 268 264 260 259 262 263 261 258 254 250 247 247 248 251 252 251 249 248 247 248 250 251 251 253 254 256 257 259 261 262 264 265 266 267 268 269 271 271 272 273 273 274 274 276 277 278 278 279 279 280 281 282 283 284 285 286 286 287 288 288 288
271 265 259 256 256 258 261 266 271 274 273 272 271 270 269 269 271 272 274 274 272 270 270 271 274 273 268 261 259 260 262 263 262 262 261 258 255 254 256 256 256 255 254 253 253 252 251 251 252 254 255 257 258 259 261 262 263 265 265 266 267 268 270 271 273 274 276 277 277 278 278 279 280 282 283 285 286 287 288 289 290 291 291 292 292
276 275 271 267 264 263 264 266 268 269 269 270 270 269 268 268 268 268 269 268 267 268 268 270 271 273 274 272 267 262 261 260 261 266 273 275 269 262 257 254 254 256 256 254 253 252 252 251 251 252 253 254 255 256 258 259 261 262 264 265 267 268 270 272 273 274 275 276 276 277 278 280 281 282 283 284 284 285 286 287 288 289 289 290 291
275 276 275 274 271 268 267 266 264 263 262 263 264 266 267 266 266 266 267 268 268 267 267 268 269 271 274 277 275 270 266 262 259 258 262 270 281 284 278 269 264 262 260 257 256 256 255 254 253 252 252 252 253 254 256 258 260 263 265 267 268 270 272 273 274 275 275 276 277 278 279 279 280 281 281 281 282 283 284 284 285 286 287 288 289
271 272 272 272 271 268 266 265 263 260 259 259 260 260 262 264 265 265 265 267 268 269 268 268 269 271 273 275 275 274 272 268 264 261 259 261 268 277 282 285 286 283 277 273 269 266 264 263 261 259 257 256 256 256 258 260 262 264 266 267 268 270 271 272 274 275 276 277 278 278 279 279 280 281 281 282 283 284 285 285 286 287 288 289 289
265 267 268 268 267 265 264 264 264 263 262 263 262 262 262 262 263 264 265 265 265 266 266 266 267 268 270 271 272 273 273 272 270 268 265 263 264 268 271 274 278 282 286 286 284 280 276 273 270 268 267 266 265 264 264 265 266 267 268 269 270 270 272 273 274 275 277 278 278 279 281 282 283 284 285 285 286 287 288 288 289 289 290 290 290
263 263 265 266 265 265 264 265 266 267 267 266 265 264 263 262 261 262 263 263 263 262 262 262 264 264 266 267 269 270 271 270 268 266 265 264 265 268 269 269 270 272 275 277 279 280 280 279 277 275 273 272 271 270 270 270 270 270 270 271 272 273 275 276 277 278 279 280 281 282 283 285 286 287 287 288 288 289 289 289 290 290 290 291 292
262 261 262 263 264 266 266 266 267 267 268 268 266 264 264 263 263 263 263 263 263 263 262 261 262 264 265 267 268 269 269 269 268 266 264 263 264 266 267 268 268 268 269 269 271 273 274 275 276 277 277 276 275 274 273 273 273 273 274 275 276 278 279 279 280 281 282 282 283 284 286 287 287 287 288 288 289 290 290 290 291 291 292 293 293
260 260 261 262 263 264 265 265 265 265 264 265 265 265 265 265 264 264 265 265 265 264 264 265 266 267 268 269 270 272 272 272 271 270 268 267 266 265 266 266 266 266 266 267 268 270 271 272 274 275 277 278 278 278 277 277 277 277 278 279 280 281 282 282 283 283 284 285 286 287 288 289 289 289 289 290 291 291 291 292 292 293 293 294 294
257 259 260 261 262 261 261 261 261 261 262 263 264 265 265 265 265 265 265 265 265 265 266 267 268 270 271 272 273 273 274 275 275 274 273 271 269 267 266 265 264 264 264 264 265 266 268 271 272 274 275 276 276 277 278 278 279 279 279 280 281 282 282 283 283 284 285 286 288 289 289 289 290 290 291 292 292 292 292 292 292 292 292 292 293
256 258 259 260 261 260 259 258 257 257 258 259 261 262 263 264 264 264 264 264 264 265 266 267 268 270 273 275 276 276 276 276 277 277 276 275 273 272 270 268 266 265 264 263 263 263 265 266 268 270 272 273 274 276 277 278 279 280 280 280 281 281 281 282 283 284 285 287 287 288 288 289 290 290 291 291 291 291 291 290 290 291 291 292 293
260 260 260 260 260 260 259 259 258 257 255 255 256 258 260 261 262 262 263 263 264 265 265 266 267 268 271 274 275 276 276 276 276 276 277 277 277 276 275 273 272 270 268 267 265 265 265 265 265 266 268 269 271 273 274 275 276 277 278 279 280 280 281 282 283 284 285 285 286 286 287 288 288 288 289 289 289 289 289 289 290 291 292 293 294
262 263 263 263 263 262 261 260 259 259 258 257 258 258 259 261 262 261 260 260 262 263 264 264 265 266 268 270 271 271 272 273 274 275 276 278 279 279 279 279 277 275 273 271 270 269 269 269 268 267 267 267 267 268 269 271 271 272 273 274 275 277 279 280 281 282 282 283 284 284 285 286 286 286 287 287 288 289 290 291 292 293 293 294 294
262 263 264 264 264 263 262 261 261 261 261 263 264 264 263 264 265 264 260 257 258 260 262 262 263 263 264 264 264 264 266 268 271 273 275 277 278 279 279 279 279 277 276 274 273 273 273 273 273 272 271 270 269 269 269 270 270 271 271 272 273 275 276 277 278 280 281 282 283 284 284 285 285 286 287 288 289 290 291 292 292 293 294 294 295
263 263 264 265 265 264 263 261 260 260 261 263 265 266 266 265 265 264 261 259 258 258 259 260 261 261 261 260 260 261 263 266 269 272 274 275 276 278 278 279 278 277 276 276 275 274 273 273 273 273 273 273 273 273 273 273 273 274 274 275 275 276 277 278 279 280 281 282 283 284 285 285 286 287 288 289 290 291 292 292 293 294 294 295 295
263 262 263 263 263 264 263 261 259 258 259 261 263 266 268 267 264 260 257 257 256 256 256 258 259 259 258 257 259 262 266 269 271 273 274 275 276 277 278 279 278 277 276 275 275 274 273 272 272 272 273 273 273 274 275 275 276 277 277 277 278 278 279 280 280 281 282 283 284 285 286 287 288 289 290 291 291 292 292 293 293 294 294 294 295
Height
3200 3201 3203 3204 3205 3207 3208 3209 3210 3211 3212 3213 3215 3217 3218 3219 3221 3221 3222 3223 3224 3225 3226 3226 3227 3227 3228 3229 3230 3230 3231 3231 3232 3232 3232 3233 3233 3234 3234 3234 3234 3234 3235 3235 3235 3236 3236 3236 3237 3237 3237 3237 3237 3238 3238 3238 3238 3238 3238 3238 3238 3238 3237 3237 3237 3236 3235 3235 3235 3234 3233 3233 3232 3231 3231 3230 3229 3228 3227 3226 3224 3223 3222 3221 3220
3199 3200 3201 3203 3204 3205 3207 3208 3209 3210 3211 3212 3213 3215 3216 3218 3219 3220 3221 3222 3223 3224 3224 3225 3226 3226 3227 3227 3228 3229 3229 3230 3231 3231 3231 3232 3232 3232 3233 3233 3233 3233 3233 3234 3234 3234 3234 3235 3235 3235 3236 3236 3236 3236 3236 3236 3237 3237 3237 3237 3236 3236 3236 3235 3235 3235 3234 3234 3234 3233 3232 3232 3231 3230 3230 3229 3228 3227 3226 3225 3224 3223 3222 3220 3219
3198 3199 3200 3201 3203 3204 3205 3206 3207 3208 3209 3210 3212 3213 3215 3216 3217 3218 3219 3220 3221 3222 3223 3223 3224 3225 3225 3226 3227 3227 3228 3228 3229 3229 3230 3230 3231 3231 3232 3232 3232 3232 3233 3233 3233 3233 3233 3233 3233 3234 3234 3234 3235 3235 3235 3235 3235 3236 3235 3235 3235 3235 3234 3234 3234 3234 3233 3233 3232 3232 3231 3231 3230 3229 3229 3228 3227 3226 3225 3225 3224 3222 3221 3220 3219
3196 3197 3198 3200 3201 3202 3204 3205 3206 3207 3208 3209 3210 3212 3213 3214 3215 3216 3217 3219 3220 3221 3221 3222 3222 3223 3224 3225 3225 3226 3226 3227 3227 3228 3228 3229 3229 3230 3230 3231 3231 3231 3232 3232 3232 3232 3232 3232 3232 3232 3232 3233 3233 3233 3234 3234 3234 3234 3234 3234 3234 3234 3233 3233 3233 3233 3232 3232 3231 3231 3230 3230 3229 3228 3227 3227 3226 3225 3224 3224 3223 3222 3220 3219 3218
3194 3195 3196 3198 3199 3201 3202 3203 3204 3205 3206 3208 3209 3210 3211 3212 3213 3214 3216 3217 3218 3219 3219 3220 3221 3222 3222 3223 3224 3224 3225 3225 3226 3226 3227 3227 3228 3228 3229 3229 3230 3230 3230 3230 3231 3231 3231 3231 3231 3231 3231 3231 3231 3231 3232 3232 3232 3233 3233 3233 3233 3233 3232 3232 3231 3231 3231 3231 3230 3230 3229 3229 3228 3227 3226 3226 3225 3225 3224 3223 3221 3220 3219 3218 3216
3191 3193 3195 3196 3197 3199 3200 3201 3202 3204 3205 3206 3208 3209 3210 3211 3212 3213 3214 3215 3216 3217 3218 3218 3219 3220 3221 3221 3222 3223 3223 3223 3224 3225 3225 3226 3227 3227 3228 3228 3228 3229 3229 3229 3229 3230 3230 3230 3231 3231 3231 3231 3231 3231 3230 3230 3231 3231 3231 3232 3232 3232 3231 3231 3231 3230 3230 3230 3229 3229 3228 3227 3227 3226 3225 3224 3224 3223 3223 3222 3220 3219 3218 3217 3216
3188 3190 3192 3193 3195 3196 3198 3199 3201 3202 3203 3204 3206 3207 3208 3209 3210 3211 3212 3213 3214 3215 3216 3217 3218 3219 3219 3220 3220 3221 3221 3222 3223 3223 3224 3225 3225 3226 3226 3227 3227 3227 3228 3228 3228 3229 3229 3229 3229 3229 3230 3230 3230 3230 3230 3230 3230 3230 3230 3230 3230 3230 3230 3230 3230 3230 3229 3229 3228 3228 3227 3226 3226 3225 3224 3223 3222 3221 3220 3220 3219 3218 3216 3216 3215
3184 3186 3188 3190 3192 3194 3195 3197 3198 3200 3201 3202 3203 3204 3206 3207 3208 3209 3210 3211 3212 3213 3214 3215 3216 3217 3218 3218 3219 3220 3220 3221 3221 3222 3223 3223 3224 3224 3225 3225 3225 3226 3226 3226 3227 3227 3227 3228 3228 3228 3228 3228 3228 3229 3229 3229 3229 3229 3229 3229 3228 3228 3228 3228 3228 3228 3228 3227 3227 3226 3226 3225 3224 3223 3223 3222 3221 3220 3219 3218 3218 3217 3216 3215 3213
3183 3184 3186 3186 3188 3190 3192 3194 3196 3197 3198 3199 3200 3202 3203 3204 3206 3207 3208 3209 3210 3211 3212 3213 3214 3215 3216 3217 3217 3218 3219 3219 3220 3221 3221 3221 3222 3223 3223 3223 3224 3224 3224 3225 3225 3226 3226 3226 3226 3226 3227 3227 3227 3227 3227 3227 3228 3228 3228 3228 3227 3227 3227 3227 3226 3226 3226 3225 3225 3225 3224 3224 3223 3222 3221 3220 3219 3218 3217 3216 3216 3215 3215 3214 3213
3181 3183 3184 3184 3185 3187 3188 3190 3192 3194 3196 3197 3198 3199 3200 3201 3203 3204 3205 3207 3208 3209 3210 3211 3211 3213 3214 3215 3216 3216 3217 3218 3219 3219 3219 3220 3220 3220 3221 3221 3222 3222 3222 3223 3223 3224 3224 3224 3225 3225 3225 3225 3225 3225 3225 3226 3226 3226 3226 3226 3226 3226 3226 3225 3225 3224 3224 3224 3224 3223 3223 3222 3221 3220 3219 3218 3217 3216 3215 3214 3214 3213 3213 3213 3212
3179 3180 3181 3183 3184 3185 3186 3188 3189 3191 3192 3193 3195 3196 3197 3198 3200 3201 3203 3204 3206 3207 3208 3209 3210 3211 3211 3212 3213 3214 3215 3216 3217 3217 3218 3218 3218 3218 3219 3219 3219 3220 3220 3220 3221 3221 3222 3222 3223 3223 3223 3223 3224 3224 3224 3224 3224 3224 3224 3224 3224 3224 3223 3223 3223 3222 3222 3222 3222 3222 3221 3220 3219 3218 3217 3216 3215 3214 3213 3212 3211 3211 3210 3210 3210
3175 3178 3179 3181 3182 3183 3184 3186 3187 3189 3189 3188 3189 3191 3193 3194 3195 3197 3199 3201 3203 3204 3205 3206 3208 3208 3209 3210 3211 3212 3213 3214 3214 3215 3215 3215 3216 3216 3216 3217 3217 3217 3218 3218 3219 3219 3219 3220 3220 3221 3221 3222 3222 3222 3222 3222 3222 3222 3222 3222 3222 3221 3221 3221 3221 3220 3220 3220 3220 3220 3219 3218 3217 3216 3215 3214 3213 3212 3212 3210 3209 3209 3208 3208 3207
3171 3174 3176 3177 3178 3180 3182 3183 3185 3187 3188 3186 3185 3186 3189 3192 3193 3194 3195 3197 3199 3201 3203 3204 3205 3206 3207 3208 3208 3209 3210 3211 3211 3212 3212 3213 3213 3213 3214 3214 3214 3215 3215 3216 3216 3217 3217 3217 3218 3218 3219 3220 3220 3220 3220 3220 3220 3220 3220 3220 3220 3219 3219 3219 3219 3218 3218 3218 3218 3217 3216 3215 3215 3214 3212 3212 3211 3210 3210 3209 3207 3206 3206 3205 3204
3168 3171 3172 3173 3173 3176 3179 3181 3182 3185 3187 3187 3185 3184 3185 3188 3191 3193 3194 3195 3197 3198 3200 3201 3202 3203 3204 3205 3206 3206 3207 3207 3208 3208 3209 3209 3210 3210 3210 3211 3211 3212 3212 3213 3213 3214 3214 3215 3215 3216 3216 3217 3217 3218 3218 3218 3218 3218 3218 3218 3217 3217 3217 3217 3217 3216 3216 3215 3215 3215 3213 3213 3213 3212 3211 3210 3209 3208 3207 3206 3205 3204 3203 3203 3202
3168 3170 3170 3170 3170 3173 3176 3178 3179 3182 3184 3185 3185 3184 3182 3182 3186 3191 3192 3193 3194 3196 3197 3198 3198 3199 3200 3201 3202 3203 3204 3205 3205 3205 3206 3206 3206 3206 3207 3207 3208 3209 3209 3210 3210 3211 3211 3212 3213 3213 3214 3214 3215 3215 3215 3215 3215 3215 3215 3215 3215 3215 3215 3215 3214 3214 3213 3213 3213 3212 3211 3211 3211 3209 3208 3207 3207 3206 3205 3203 3203 3202 3201 3200 3199
3165 3167 3168 3168 3169 3171 3173 3175 3176 3178 3180 3181 3182 3183 3180 3179 3183 3188 3189 3190 3193 3194 3195 3196 3196 3196 3196 3197 3199 3200 3201 3201 3202 3202 3203 3203 3202 3203 3203 3204 3204 3205 3206 3206 3207 3207 3208 3209 3210 3210 3211 3211 3212 3212 3212 3212 3212 3213 3213 3212 3212 3212 3212 3212 3211 3211 3211 3210 3210 3209 3209 3209 3208 3206 3205 3205 3204 3203 3202 3201 3200 3199 3198 3197 3196
3162 3163 3165 3166 3167 3168 3169 3171 3173 3174 3176 3177 3178 3180 3179 3178 3182 3185 3185 3188 3191 3191 3192 3193 3193 3193 3193 3194 3195 3196 3197 3198 3198 3199 3199 3199 3199 3199 3200 3200 3201 3201 3202 3203 3203 3203 3204 3205 3206 3207 3207 3208 3208 3209 3209 3209 3209 3209 3210 3209 3209 3209 3209 3209 3209 3209 3208 3208 3207 3206 3205 3205 3204 3203 3203 3202 3202 3201 3200 3199 3198 3197 3196 3195 3194
3160 3161 3162 3163 3164 3165 3166 3168 3169 3170 3172 3173 3174 3175 3175 3176 3179 3181 3182 3185 3186 3187 3188 3189 3189 3189 3189 3190 3191 3191 3192 3193 3193 3194 3195 3195 3195 3196 3196 3196 3197 3197 3198 3199 3199 3199 3200 3201 3203 3204 3204 3204 3205 3205 3206 3206 3206 3206 3206 3206 3206 3206 3206 3206 3206 3206 3205 3204 3204 3203 3203 3202 3202 3201 3200 3200 3199 3198 3197 3196 3195 3194 3193 3192 3191
3158 3159 3160 3161 3162 3163 3164 3166 3167 3167 3169 3170 3169 3170 3171 3173 3175 3178 3179 3180 3181 3182 3183 3184 3185 3185 3185 3185 3186 3186 3186 3187 3188 3189 3190 3191 3191 3191 3191 3192 3192 3194 3194 3195 3195 3195 3196 3198 3199 3200 3200 3200 3201 3201 3202 3203 3203 3203 3203 3203 3202 3202 3203 3203 3203 3203 3203 3202 3201 3201 3200 3200 3199 3198 3197 3196 3195 3195 3194 3193 3192 3191 3190 3189 3188
3156 3157 3158 3159 3161 3161 3161 3163 3165 3165 3166 3167 3167 3167 3168 3170 3172 3174 3175 3176 3177 3178 3179 3180 3180 3181 3181 3181 3181 3180 3181 3183 3184 3185 3186 3186 3186 3186 3186 3186 3187 3188 3189 3189 3190 3191 3193 3194 3196 3196 3197 3197 3197 3198 3199 3199 3200 3199 3199 3199 3199 3199 3199 3199 3200 3200 3200 3199 3199 3198 3197 3196 3196 3195 3194 3193 3192 3191 3190 3189 3189 3188 3187 3186 3185
3156 3156 3155 3157 3158 3159 3159 3162 3163 3163 3164 3165 3165 3165 3165 3167 3168 3170 3170 3171 3172 3173 3174 3175 3176 3176 3176 3176 3176 3176 3177 3179 3180 3181 3181 3181 3181 3181 3180 3180 3181 3182 3183 3183 3185 3186 3188 3190 3192 3192 3193 3193 3194 3195 3195 3196 3196 3196 3196 3196 3196 3196 3196 3196 3197 3197 3197 3197 3196 3196 3195 3194 3193 3192 3191 3190 3189 3189 3187 3186 3185 3185 3184 3183 3182
3155 3155 3155 3155 3155 3156 3156 3159 3160 3161 3161 3161 3161 3161 3162 3163 3165 3165 3166 3167 3168 3169 3170 3170 3171 3171 3171 3172 3172 3172 3173 3173 3174 3176 3176 3176 3175 3175 3175 3175 3176 3177 3177 3177 3178 3181 3183 3184 3186 3187 3188 3189 3190 3191 3191 3192 3193 3193 3193 3193 3193 3193 3193 3193 3193 3194 3194 3193 3193 3192 3192 3191 3190 3189 3188 3187 3187 3186 3185 3183 3182 3182 3181 3180 3179
3152 3153 3153 3153 3153 3153 3153 3154 3156 3157 3157 3157 3157 3158 3159 3160 3161 3162 3162 3163 3163 3164 3165 3165 3166 3166 3167 3167 3167 3167 3168 3169 3170 3171 3171 3171 3170 3170 3170 3170 3170 3171 3172 3172 3173 3175 3176 3177 3180 3182 3183 3185 3186 3186 3187 3188 3189 3190 3190 3190 3190 3190 3190 3190 3190 3190 3190 3190 3189 3189 3189 3188 3187 3186 3186 3185 3184 3183 3182 3181 3179 3179 3178 3177 3177
3149 3149 3150 3150 3150 3151 3150 3151 3152 3153 3153 3154 3154 3155 3156 3157 3158 3158 3159 3159 3160 3160 3160 3161 3162 3162 3162 3162 3162 3162 3164 3165 3166 3167 3166 3166 3166 3166 3166 3166 3165 3165 3167 3167 3168 3168 3169 3171 3174 3177 3179 3180 3182 3183 3184 3184 3185 3186 3187 3187 3186 3186 3186 3187 3187 3187 3187 3186 3186 3186 3185 3185 3184 3183 3183 3182 3182 3181 3180 3178 3177 3176 3176 3175 3174
3146 3146 3147 3147 3147 3147 3148 3148 3149 3150 3151 3151 3151 3152 3153 3154 3154 3155 3156 3156 3157 3157 3156 3157 3157 3157 3157 3157 3157 3157 3159 3161 3162 3162 3162 3163 3163 3162 3162 3161 3161 3161 3162 3163 3163 3164 3165 3167 3169 3172 3174 3176 3178 3179 3180 3181 3182 3182 3183 3183 3183 3183 3183 3183 3183 3183 3183 3183 3182 3182 3182 3181 3181 3181 3180 3179 3179 3178 3177 3176 3175 3174 3174 3173 3172
3144 3144 3144 3144 3144 3145 3145 3146 3146 3147 3148 3148 3149 3149 3149 3150 3151 3151 3152 3153 3153 3153 3153 3153 3153 3153 3154 3154 3153 3154 3155 3157 3158 3158 3159 3159 3159 3158 3158 3157 3157 3158 3159 3159 3160 3161 3163 3164 3166 3168 3170 3172 3174 3176 3177 3177 3178 3179 3180 3180 3180 3180 3180 3180 3180 3180 3179 3179 3179 3179 3178 3178 3178 3177 3177 3176 3176 3175 3175 3174 3173 3172 3171 3170 3169
3142 3142 3143 3143 3143 3143 3143 3143 3143 3144 3145 3145 3145 3146 3147 3147 3148 3148 3149 3149 3150 3150 3150 3150 3150 3150 3150 3150 3151 3151 3151 3152 3154 3154 3155 3155 3155 3154 3154 3154 3154 3156 3156 3156 3157 3159 3160 3162 3163 3165 3167 3169 3171 3172 3173 3174 3175 3176 3176 3176 3176 3176 3176 3176 3176 3176 3175 3175 3175 3175 3175 3175 3174 3174 3173 3173 3173 3172 3172 3171 3170 3169 3168 3167 3166
3140 3140 3141 3141 3141 3141 3141 3141 3141 3141 3142 3142 3143 3143 3144 3145 3146 3147 3147 3147 3148 3148 3148 3148 3148 3148 3147 3147 3148 3148 3149 3149 3150 3151 3151 3152 3152 3152 3151 3152 3153 3154 3155 3155 3156 3158 3159 3159 3160 3162 3164 3166 3167 3168 3169 3170 3171 3172 3172 3172 3172 3172 3172 3172 3172 3172 3172 3172 3172 3172 3171 3171 3171 3170 3170 3170 3169 3169 3168 3167 3166 3165 3164 3164 3163
3138 3138 3138 3139 3139 3139 3139 3139 3139 3139 3140 3140 3141 3141 3142 3143 3144 3145 3145 3146 3146 3146 3147 3147 3147 3146 3146 3145 3145 3146 3146 3147 3148 3148 3149 3149 3149 3150 3150 3150 3151 3152 3153 3154 3155 3156 3157 3158 3159 3160 3161 3162 3164 3165 3166 3167 3167 3168 3168 3169 3169 3169 3170 3169 3169 3169 3169 3169 3169 3169 3168 3168 3167 3167 3166 3166 3165 3165 3164 3163 3162 3161 3161 3160 3159
3138 3137 3137 3137 3137 3137 3138 3138 3138 3138 3138 3139 3139 3139 3140 3140 3141 3142 3143 3144 3144 3144 3145 3145 3145 3144 3144 3144 3144 3144 3144 3145 3145 3146 3146 3147 3147 3147 3148 3148 3149 3150 3151 3152 3153 3154 3155 3156 3156 3157 3158 3159 3161 3162 3163 3163 3164 3164 3165 3165 3166 3166 3166 3166 3166 3166 3166 3166 3166 3165 3165 3164 3163 3163 3162 3162 3161 3161 3160 3159 3158 3158 3157 3156 3155
3136 3137 3136 3136 3136 3136 3137 3137 3137 3137 3138 3138 3138 3138 3138 3138 3138 3139 3140 3141 3141 3141 3142 3143 3142 3142 3142 3142 3143 3143 3143 3143 3144 3144 3145 3145 3145 3145 3146 3146 3147 3148 3149 3150 3151 3152 3153 3153 3154 3154 3155 3157 3158 3159 3160 3160 3161 3161 3162 3162 3163 3163 3163 3163 3163 3162 3162 3162 3162 3161 3161 3160 3159 3159 3158 3158 3157 3157 3156 3155 3155 3154 3153 3152 3152
3135 3135 3135 3135 3135 3135 3136 3136 3136 3137 3137 3137 3137 3137 3137 3136 3136 3136 3137 3137 3138 3139 3139 3139 3139 3139 3139 3140 3140 3141 3141 3142 3142 3142 3143 3143 3143 3143 3144 3144 3145 3146 3147 3148 3149 3150 3150 3151 3151 3152 3152 3153 3155 3156 3157 3157 3158 3158 3159 3159 3159 3159 3159 3159 3158 3158 3158 3158 3158 3157 3156 3156 3155 3155 3154 3154 3154 3153 3152 3152 3151 3150 3149 3149 3148
3134 3134 3134 3134 3134 3135 3135 3135 3136 3136 3136 3136 3136 3136 3136 3136 3135 3134 3134 3134 3135 3136 3136 3136 3137 3137 3137 3137 3137 3138 3138 3139 3139 3139 3140 3140 3141 3141 3141 3142 3143 3144 3145 3145 3146 3147 3148 3149 3149 3150 3150 3151 3152 3153 3154 3154 3155 3155 3155 3155 3155 3155 3154 3154 3154 3154 3154 3153 3153 3153 3152 3152 3151 3151 3151 3150 3150 3149 3149 3148 3147 3147 3146 3145 3144
3133 3133 3133 3133 3133 3134 3134 3134 3135 3135 3135 3135 3135 3135 3135 3135 3134 3134 3133 3133 3133 3133 3133 3133 3134 3134 3135 3135 3135 3135 3135 3136 3136 3137 3137 3137 3138 3139 3139 3139 3140 3140 3141 3142 3143 3144 3145 3146 3147 3147 3148 3148 3149 3149 3150 3150 3151 3151 3151 3151 3150 3150 3150 3150 3150 3149 3149 3149 3149 3149 3148 3148 3148 3147 3147 3146 3146 3145 3144 3144 3143 3142 3141 3141 3140
3132 3132 3132 3132 3132 3132 3132 3133 3133 3133 3134 3134 3134 3133 3133 3133 3133 3133 3133 3133 3132 3131 3131 3131 3131 3132 3133 3133 3133 3133 3133 3134 3134 3134 3134 3135 3136 3137 3137 3137 3138 3138 3139 3140 3141 3142 3142 3143 3144 3145 3145 3146 3146 3146 3146 3147 3147 3147 3147 3146 3146 3146 3146 3146 3146 3145 3145 3145 3145 3145 3144 3144 3144 3143 3143 3142 3142 3141 3140 3140 3139 3138 3137 3137 3136
3131 3131 3131 3131 3130 3130 3130 3131 3131 3131 3132 3132 3132 3132 3132 3131 3131 3131 3131 3131 3131 3130 3130 3129 3129 3130 3131 3131 3132 3132 3132 3132 3132 3132 3132 3132 3133 3134 3135 3135 3136 3136 3136 3137 3137 3138 3140 3140 3141 3141 3142 3142 3142 3143 3143 3143 3143 3143 3143 3142 3142 3142 3142 3142 3141 3141 3141 3141 3141 3141 3140 3140 3140 3139 3139 3138 3138 3137 3136 3135 3134 3134 3133 3133 3132
3129 3129 3129 3129 3129 3129 3129 3129 3129 3129 3129 3129 3130 3130 3130 3130 3129 3129 3129 3129 3129 3129 3128 3127 3127 3128 3128 3128 3129 3130 3130 3130 3130 3130 3130 3130 3130 3131 3132 3132 3134 3134 3134 3134 3135 3136 3137 3137 3137 3138 3138 3138 3138 3138 3139 3139 3139 3139 3138 3138 3138 3138 3138 3138 3137 3137 3137 3137 3137 3137 3136 3136 3135 3135 3134 3134 3133 3133 3132 3131 3130 3129 3129 3128 3127
3126 3126 3127 3127 3127 3127 3127 3127 3127 3127 3127 3127 3127 3127 3128 3128 3127 3127 3127 3127 3127 3127 3127 3126 3126 3126 3126 3126 3127 3127 3128 3128 3128 3128 3128 3128 3129 3129 3129 3130 3131 3132 3132 3132 3132 3133 3133 3134 3134 3134 3134 3134 3135 3135 3135 3135 3135 3135 3135 3135 3134 3134 3134 3134 3134 3134 3134 3133 3133 3133 3132 3132 3131 3131 3131 3130 3129 3129 3128 3127 3126 3125 3125 3124 3123
3123 3123 3123 3124 3124 3125 3125 3125 3125 3125 3125 3125 3125 3125 3125 3125 3125 3125 3125 3125 3125 3126 3126 3125 3124 3124 3124 3124 3125 3125 3125 3125 3125 3125 3126 3127 3127 3127 3127 3128 3129 3129 3130 3130 3130 3130 3130 3130 3130 3131 3131 3131 3131 3131 3131 3131 3131 3131 3131 3131 3131 3130 3130 3130 3130 3130 3130 3130 3129 3129 3129 3128 3128 3128 3127 3126 3126 3125 3124 3123 3122 3121 3120 3120 3119
3120 3120 3120 3120 3121 3121 3122 3122 3122 3122 3122 3122 3122 3122 3122 3123 3123 3123 3123 3123 3124 3124 3124 3123 3123 3122 3122 3122 3123 3123 3123 3124 3124 3124 3124 3125 3126 3126 3126 3126 3127 3127 3127 3127 3127 3127 3127 3127 3127 3127 3127 3127 3127 3127 3127 3127 3127 3127 3127 3127 3127 3127 3127 3127 3126 3126 3126 3126 3125 3125 3125 3124 3124 3124 3123 3122 3121 3120 3119 3118 3117 3116 3115 3114 3114
3117 3117 3117 3117 3117 3117 3118 3118 3118 3119 3119 3119 3119 3120 3120 3120 3121 3121 3121 3122 3122 3122 3122 3122 3121 3121 3120 3120 3120 3121 3121 3122 3122 3122 3122 3123 3123 3124 3124 3125 3125 3125 3126 3126 3125 3125 3125 3125 3124 3124 3124 3124 3124 3124 3124 3124 3124 3124 3124 3124 3124 3124 3123 3123 3123 3122 3122 3121 3121 3120 3120 3120 3119 3118 3118 3117 3116 3115 3114 3113 3112 3111 3110 3109 3108
3114 3114 3114 3114 3114 3114 3114 3115 3115 3115 3116 3116 3116 3116 3117 3117 3118 3119 3119 3119 3120 3120 3120 3120 3119 3119 3118 3118 3118 3118 3118 3119 3119 3120 3120 3120 3121 3121 3121 3122 3123 3123 3123 3123 3123 3123 3123 3122 3122 3121 3121 3121 3120 3120 3120 3120 3120 3120 3120 3120 3120 3120 3119 3119 3118 3117 3117 3116 3116 3115 3115 3114 3114 3113 3112 3111 3110 3109 3108 3107 3106 3105 3104 3103 3102
3110 3110 3111 3111 3111 3111 3111 3111 3112 3112 3113 3113 3113 3113 3113 3114 3115 3115 3116 3117 3117 3117 3118 3118 3117 3117 3116 3116 3115 3115 3115 3115 3116 3116 3117 3117 3118 3118 3118 3119 3119 3120 3120 3120 3120 3119 3119 3119 3119 3118 3118 3117 3117 3117 3116 3116 3116 3116 3116 3115 3115 3115 3114 3114 3113 3112 3112 3111 3110 3110 3110 3109 3108 3108 3107 3106 3105 3104 3103 3102 3101 3100 3099 3098 3097
3106 3106 3106 3107 3107 3108 3108 3108 3109 3109 3109 3109 3109 3109 3110 3110 3111 3112 3113 3113 3113 3114 3114 3115 3115 3114 3114 3113 3113 3112 3112 3112 3112 3113 3113 3113 3114 3114 3114 3114 3115 3115 3116 3116 3116 3115 3115 3115 3115 3114 3114 3114 3114 3113 3113 3112 3112 3112 3111 3111 3111 3110 3109 3109 3108 3107 3106 3106 3105 3105 3104 3104 3103 3102 3101 3100 3099 3098 3097 3096 3095 3094 3093 3092 3091
3101 3101 3102 3102 3103 3103 3104 3104 3105 3105 3105 3106 3106 3106 3106 3107 3108 3108 3109 3109 3109 3109 3110 3111 3111 3111 3111 3110 3110 3109 3109 3109 3109 3109 3109 3109 3109 3109 3110 3110 3110 3110 3111 3111 3111 3111 3111 3111 3111 3110 3110 3110 3110 3110 3109 3109 3109 3108 3108 3107 3106 3106 3105 3104 3103 3102 3102 3101 3101 3100 3099 3098 3097 3097 3096 3095 3094 3093 3092 3091 3090 3089 3088 3088 3086
3097 3097 3098 3098 3098 3099 3099 3100 3100 3101 3101 3102 3102 3102 3103 3103 3104 3104 3105 3105 3105 3105 3106 3106 3107 3107 3107 3107 3106 3106 3105 3105 3105 3105 3105 3105 3105 3105 3105 3105 3105 3106 3106 3106 3106 3106 3106 3106 3106 3106 3106 3106 3106 3106 3105 3105 3105 3104 3103 3103 3102 3101 3100 3099 3099 3098 3097 3097 3096 3095 3094 3093 3092 3091 3090 3089 3089 3088 3087 3086 3086 3085 3084 3083 3082
3092 3092 3093 3093 3094 3094 3095 3095 3096 3096 3097 3097 3098 3098 3098 3099 3099 3100 3101 3101 3101 3101 3102 3102 3102 3103 3103 3103 3103 3102 3102 3101 3101 3101 3101 3101 3101 3101 3101 3101 3101 3101 3101 3101 3101 3101 3101 3101 3101 3101 3101 3101 3101 3101 3101 3101 3100 3100 3099 3098 3097 3096 3096 3095 3094 3093 3093 3092 3091 3090 3089 3088 3087 3087 3086 3085 3084 3083 3082 3081 3080 3080 3079 3078 3077
3087 3087 3088 3088 3089 3090 3090 3091 3091 3092 3092 3092 3093 3093 3094 3094 3095 3095 3096 3096 3097 3097 3098 3098 3098 3099 3099 3099 3099 3099 3098 3097 3097 3096 3096 3096 3096 3096 3097 3097 3097 3097 3096 3096 3096 3096 3096 3096 3096 3096 3096 3097 3097 3097 3096 3096 3096 3095 3094 3094 3093 3092 3091 3091 3090 3089 3088 3087 3086 3085 3084 3084 3083 3082 3081 3080 3079 3078 3077 3076 3075 3074 3074 3072 3071
3082 3082 3082 3083 3084 3084 3085 3086 3087 3087 3087 3088 3088 3089 3089 3089 3090 3090 3091 3091 3092 3093 3093 3094 3094 3095 3095 3095 3095 3095 3094 3094 3093 3092 3092 3092 3092 3092 3092 3092 3092 3092 3092 3092 3092 3092 3092 3091 3091 3091 3091 3091 3091 3091 3091 3091 3090 3090 3089 3089 3088 3088 3087 3086 3085 3084 3083 3082 3081 3081 3080 3079 3078 3077 3076 3075 3074 3073 3072 3071 3070 3069 3068 3067 3066
3077 3077 3077 3078 3079 3080 3081 3082 3082 3082 3083 3083 3084 3084 3085 3085 3085 3086 3086 3087 3087 3088 3088 3089 3090 3090 3091 3091 3091 3090 3090 3090 3089 3089 3089 3088 3088 3087 3087 3087 3087 3087 3087 3087 3087 3087 3087 3087 3087 3086 3086 3086 3086 3086 3086 3085 3085 3084 3084 3083 3083 3082 3081 3081 3080 3079 3078 3077 3076 3076 3075 3074 3073 3072 3071 3070 3070 3069 3068 3067 3065 3064 3063 3062 3061
3072 3072 3073 3073 3074 3074 3076 3077 3077 3078 3078 3079 3079 3080 3080 3080 3081 3081 3082 3082 3082 3083 3084 3084 3085 3086 3086 3086 3086 3086 3086 3086 3086 3085 3085 3084 3084 3083 3083 3083 3083 3082 3082 3082 3082 3082 3082 3082 3082 3082 3082 3081 3081 3081 3080 3080 3080 3079 3079 3078 3078 3077 3076 3076 3075 3074 3073 3073 3072 3071 3070 3069 3068 3068 3067 3066 3065 3064 3063 3062 3061 3059 3058 3057 3055